Wind_Speed
11 12 12 12 13 13 13 14 14 15 16 16 17 17 18 18 19 20 20 21 21 21 21 21 21 22 22 22 23 23 24 24 25 26 26 26 26 26 26 27 28 29 30
13 14 15 15 16 16 17 17 18 19 20 20 21 21 21 22 22 23 23 23 23 23 24 24 24 24 24 25 25 25 26 26 27 28 29 29 28 28 28 28 29 29 31
16 17 17 18 19 20 21 21 22 23 23 24 24 24 24 25 25 25 25 26 26 26 26 26 27 27 27 27 27 28 28 28 28 29 30 31 31 30 30 30 30 30 31
18 19 20 21 21 22 23 24 25 26 27 27 27 27 27 27 28 28 28 28 29 29 29 29 29 29 30 30 30 30 30 30 31 31 31 32 32 33 33 33 32 32 32
19 20 21 22 23 24 26 27 28 28 29 29 29 29 29 29 30 30 30 31 32 32 32 32 32 32 32 32 32 33 33 33 33 33 33 34 35 35 35 35 35 35 34
22 23 23 24 25 26 28 29 29 30 31 31 31 31 31 31 32 32 33 34 34 34 34 35 35 35 35 35 36 36 36 36 36 36 36 36 37 38 38 38 37 37 37
24 26 27 27 28 29 30 31 32 32 33 33 33 34 34 34 35 36 37 38 37 36 37 38 38 39 39 39 39 39 39 39 40 40 39 39 40 40 40 40 40 40 40
28 29 30 31 31 32 33 33 35 35 36 36 36 37 37 37 39 40 42 42 41 40 41 41 41 42 43 43 44 43 43 42 43 44 43 42 42 43 43 43 42 42 42
31 32 32 33 34 35 36 36 37 38 38 39 40 41 41 42 43 44 45 46 46 45 45 45 46 46 46 47 48 48 46 46 46 46 45 44 44 45 46 46 45 45 44
34 34 34 35 36 37 38 39 40 40 41 42 43 44 45 46 47 48 49 50 50 50 50 50 50 49 50 50 52 52 50 49 50 50 48 47 47 47 48 48 48 47 47
37 37 37 38 38 40 41 42 43 44 44 45 46 47 49 49 50 51 52 53 53 54 54 54 54 53 53 54 55 55 54 53 53 53 52 51 50 50 50 51 50 49 49
38 39 39 40 41 42 44 45 46 46 47 48 49 50 52 52 53 54 55 56 56 57 57 57 58 58 58 58 58 58 58 58 57 56 56 55 54 53 53 52 51 50 50
39 40 40 42 43 44 45 46 47 48 49 50 52 53 54 55 56 57 58 59 60 61 61 61 61 62 62 62 62 62 62 62 61 60 59 57 57 56 55 54 53 52 51
40 40 42 43 44 45 46 48 49 50 51 52 54 55 57 58 59 60 61 62 63 64 64 65 65 65 66 66 66 65 64 64 64 63 61 60 58 58 56 55 54 53 52
39 41 42 44 45 46 48 49 51 52 54 56 57 59 60 61 62 64 65 65 67 68 68 69 69 69 69 69 68 67 66 66 65 63 62 60 59 58 57 55 54 52 51
41 42 44 45 47 48 50 52 54 56 57 59 61 63 64 66 67 68 69 70 71 72 72 71 71 71 70 69 68 67 66 65 64 62 61 60 58 56 55 54 52 51 50
43 44 46 48 50 51 53 55 57 59 61 63 65 66 68 70 71 72 73 73 73 73 72 71 70 69 68 67 66 65 63 62 61 59 58 56 54 53 52 51 51 49 48
46 48 49 51 53 55 57 59 61 63 65 66 68 69 70 71 71 72 71 71 69 69 68 67 66 65 64 63 61 60 58 56 55 54 52 51 51 51 50 49 49 47 45
50 52 54 56 57 59 61 63 65 66 67 68 69 69 69 68 66 65 64 63 62 61 60 58 57 56 55 54 53 52 50 49 48 47 47 47 47 47 47 46 45 44 43
53 55 57 59 61 62 64 65 65 66 66 66 65 64 62 59 58 56 55 54 53 51 50 48 46 45 44 43 43 42 41 40 40 40 39 41 41 41 41 41 42 42 41
56 58 59 60 61 62 63 63 62 61 60 59 57 55 53 52 50 49 47 46 44 42 40 38 37 36 35 34 33 33 32 32 32 33 34 35 36 37 36 35 35 36 37
57 58 59 59 59 58 58 56 55 54 53 51 49 47 46 45 44 41 39 37 35 33 31 30 29 27 26 24 23 23 24 24 25 26 27 29 30 31 30 30 31 32 33
55 55 55 54 53 51 50 50 49 48 46 44 43 41 40 38 35 33 32 30 28 26 25 24 22 20 18 17 17 16 17 18 20 21 22 23 24 25 27 27 28 29 30
50 49 48 47 46 46 46 46 44 42 41 40 38 36 34 32 30 29 26 24 22 20 19 18 16 15 15 14 13 14 14 15 16 17 18 19 20 21 22 24 25 26 28
45 44 43 43 42 42 41 40 38 37 36 34 32 30 28 26 24 23 21 19 17 16 15 13 12 11 11 10 10 11 12 13 13 15 16 17 18 19 21 22 23 25 27
40 39 39 38 38 37 36 34 33 31 29 27 25 24 22 20 18 17 16 15 14 13 12 11 10 9 9 8 8 10 10 11 12 13 15 17 18 19 21 22 23 25 26
Wind_Direction
231 233 236 239 242 247 250 253 256 260 263 266 268 272 275 277 279 281 283 284 285 286 286 286 287 288 289 290 289 290 291 290 289 287 286 284 282 280 278 276 275 273 271
240 242 244 246 249 252 255 258 261 264 267 270 272 274 277 279 280 282 283 284 284 285 285 285 286 287 286 287 288 287 289 289 288 287 287 285 283 281 280 278 276 275 273
248 249 251 253 256 258 261 264 266 269 271 273 275 277 280 281 282 283 284 285 285 285 285 285 285 286 286 286 286 286 286 287 287 286 285 285 284 282 281 280 279 277 276
255 256 258 260 262 264 267 269 271 273 275 276 278 280 281 283 284 285 285 285 285 285 285 285 285 285 286 286 286 285 286 286 285 284 284 283 283 282 282 281 280 278 277
260 261 263 265 267 269 270 272 274 275 277 278 280 281 283 284 284 284 284 284 284 285 284 284 284 285 285 286 286 285 286 286 286 284 283 282 282 282 282 281 280 279 278
262 263 265 267 269 270 272 275 276 277 278 280 281 282 283 284 283 283 283 283 284 285 285 283 283 284 285 286 286 285 286 286 286 285 284 283 282 282 282 281 281 280 280
265 267 268 270 271 272 274 275 276 277 279 281 282 283 284 284 283 283 283 283 284 285 285 283 283 283 283 284 284 285 286 286 285 284 284 284 283 283 282 282 281 281 281
265 267 268 269 271 273 274 275 276 278 280 280 281 283 284 284 283 283 283 283 284 284 284 284 283 284 284 284 283 284 284 284 284 283 283 283 283 283 282 282 281 281 281
265 269 270 271 272 273 275 277 278 279 280 281 282 283 284 284 284 284 285 285 285 285 285 285 285 284 284 284 283 283 283 284 283 281 282 282 282 282 282 282 282 281 281
266 267 270 273 274 276 278 279 280 281 282 283 284 284 284 284 284 285 285 284 284 284 284 284 284 284 283 282 282 282 282 283 282 281 281 281 281 281 281 281 281 281 281
268 269 271 272 274 277 280 281 281 282 282 283 284 284 284 284 284 284 284 284 284 284 283 284 283 282 281 281 281 281 282 281 280 280 280 280 280 280 280 280 281 281 281
272 272 274 275 277 279 280 280 282 283 284 284 285 285 285 285 285 284 284 284 284 283 283 283 282 282 281 280 280 280 280 279 278 278 278 279 279 279 279 279 279 279 279
274 275 276 278 279 280 282 283 284 284 285 285 285 285 285 285 285 284 284 284 283 283 282 282 281 281 280 280 279 279 278 278 277 277 277 277 277 278 277 278 278 277 276
277 279 281 282 283 284 284 285 285 286 286 286 286 286 286 285 285 285 284 284 283 283 282 282 281 281 280 279 279 278 277 276 276 276 275 275 274 275 275 276 275 274 274
282 283 284 284 285 286 286 287 287 287 287 287 287 287 286 286 286 285 285 284 284 283 282 282 281 281 280 279 278 277 276 275 275 274 273 272 272 272 273 272 272 272 272
285 285 286 287 287 288 288 289 289 289 289 289 289 288 288 287 287 286 286 285 284 284 283 282 281 281 280 279 278 276 275 274 273 272 271 270 269 268 268 268 267 268 269
288 289 289 289 290 290 290 290 290 291 291 290 290 290 289 289 288 288 287 286 286 285 284 284 283 281 280 279 278 276 274 273 271 269 268 267 265 264 264 263 263 263 264
291 291 291 291 291 292 292 292 292 292 292 292 291 291 290 290 290 289 289 288 287 287 286 285 284 282 281 279 277 275 273 270 268 266 263 262 261 260 260 258 258 259 260
293 293 294 294 294 294 294 294 294 294 293 293 293 292 292 292 291 291 290 290 289 289 288 287 285 283 281 279 276 273 270 267 265 262 260 258 258 258 257 255 255 256 258
295 295 296 296 296 296 296 296 296 295 295 295 295 295 294 294 294 293 293 292 292 291 290 288 287 284 281 277 274 270 266 264 261 259 257 255 255 255 255 254 254 254 256
297 298 298 297 297 297 297 297 297 297 297 298 298 298 297 296 296 296 295 294 293 292 290 289 287 285 282 278 272 268 263 260 257 255 253 254 255 254 253 253 255 254 252
299 299 298 298 298 298 298 298 299 299 300 301 300 300 299 299 299 298 297 296 295 294 292 291 289 287 283 278 273 270 262 257 253 253 253 253 252 250 249 251 253 253 252
299 299 299 299 299 300 300 301 302 302 302 302 302 301 301 301 299 299 299 297 297 297 295 292 289 285 279 277 276 269 262 256 253 254 253 253 251 249 249 250 252 253 254
299 300 300 300 301 302 303 303 304 304 304 304 304 304 303 302 301 301 299 298 298 298 298 297 294 286 281 278 274 266 264 260 256 254 252 250 248 248 250 250 252 254 254
300 301 301 303 304 305 306 306 306 306 306 306 306 306 306 306 305 304 300 298 298 300 301 299 296 291 285 283 276 269 265 262 258 254 252 252 252 254 256 258 259 258 257
302 303 304 306 307 308 309 309 310 311 311 311 311 311 312 311 311 311 309 304 301 301 302 297 294 293 288 280 272 265 265 262 259 261 262 261 261 261 261 262 262 262 262
Height
5862 5862 5863 5864 5865 5865 5866 5866 5866 5866 5866 5866 5865 5865 5864 5863 5862 5861 5860 5859 5857 5856 5855 5853 5852 5850 5848 5846 5844 5843 5841 5839 5837 5836 5834 5833 5832 5831 5830 5829 5828 5827 5827
5859 5859 5860 5860 5861 5861 5862 5862 5862 5862 5861 5861 5860 5859 5859 5858 5857 5855 5854 5852 5851 5850 5848 5847 5846 5844 5842 5840 5838 5836 5834 5832 5830 5828 5826 5825 5824 5823 5822 5821 5820 5819 5818
5855 5856 5856 5856 5857 5857 5857 5857 5857 5857 5856 5855 5855 5854 5853 5851 5850 5849 5847 5846 5844 5843 5841 5840 5838 5836 5835 5833 5831 5829 5827 5825 5823 5821 5819 5817 5816 5815 5814 5813 5811 5810 5809
5851 5851 5852 5852 5852 5852 5852 5852 5851 5851 5850 5849 5848 5847 5846 5845 5843 5841 5840 5838 5836 5835 5833 5831 5830 5828 5826 5824 5822 5820 5818 5816 5814 5812 5810 5808 5807 5805 5804 5803 5802 5801 5800
5846 5846 5846 5847 5846 5846 5846 5845 5845 5844 5843 5842 5841 5840 5838 5837 5835 5833 5831 5830 5828 5826 5824 5822 5821 5819 5817 5815 5813 5811 5809 5807 5805 5803 5801 5799 5797 5795 5794 5793 5792 5790 5789
5841 5841 5840 5840 5840 5839 5839 5838 5837 5836 5835 5834 5833 5831 5830 5828 5827 5824 5822 5820 5818 5817 5815 5813 5811 5809 5807 5805 5803 5800 5799 5796 5794 5792 5791 5789 5787 5785 5783 5782 5780 5779 5778
5834 5834 5834 5833 5833 5832 5831 5830 5829 5828 5826 5825 5823 5822 5820 5819 5817 5814 5811 5809 5808 5807 5804 5802 5800 5797 5796 5794 5791 5789 5787 5785 5783 5781 5780 5778 5775 5773 5772 5770 5769 5767 5766
5827 5827 5826 5825 5825 5824 5823 5822 5820 5819 5817 5815 5813 5812 5810 5808 5805 5803 5800 5798 5796 5795 5793 5790 5788 5785 5783 5781 5778 5777 5775 5773 5771 5768 5767 5766 5763 5761 5759 5757 5756 5754 5753
5819 5818 5817 5816 5815 5814 5813 5812 5810 5808 5806 5804 5803 5800 5798 5796 5793 5790 5787 5785 5783 5782 5779 5777 5775 5773 5771 5767 5764 5762 5761 5760 5757 5755 5754 5752 5750 5748 5745 5744 5742 5741 5740
5810 5809 5808 5807 5806 5805 5803 5801 5799 5797 5795 5793 5790 5788 5786 5783 5780 5777 5774 5771 5769 5767 5765 5763 5761 5759 5756 5753 5749 5747 5747 5746 5742 5740 5739 5738 5736 5734 5731 5729 5728 5726 5725
5800 5799 5798 5797 5796 5794 5792 5790 5788 5786 5783 5780 5778 5775 5772 5769 5766 5763 5760 5756 5754 5752 5749 5747 5745 5743 5740 5737 5734 5732 5731 5729 5726 5724 5723 5722 5721 5719 5717 5715 5713 5712 5710
5791 5789 5788 5787 5785 5783 5781 5779 5776 5773 5770 5768 5765 5761 5758 5754 5751 5748 5744 5741 5737 5735 5733 5730 5727 5724 5722 5719 5717 5715 5713 5711 5709 5708 5707 5706 5704 5703 5702 5700 5699 5697 5695
5781 5779 5778 5776 5774 5772 5769 5766 5763 5760 5757 5754 5750 5747 5743 5739 5735 5731 5728 5724 5720 5716 5714 5711 5709 5706 5702 5700 5698 5696 5693 5691 5690 5689 5689 5688 5687 5686 5684 5683 5682 5681 5680
5771 5769 5767 5765 5762 5759 5756 5753 5750 5746 5742 5738 5734 5730 5726 5722 5717 5713 5709 5705 5701 5697 5694 5691 5688 5685 5682 5679 5677 5675 5673 5671 5670 5669 5669 5669 5668 5667 5667 5666 5665 5664 5664
5760 5758 5755 5752 5749 5746 5742 5739 5735 5730 5726 5722 5718 5713 5709 5704 5699 5694 5689 5685 5680 5676 5672 5669 5666 5662 5659 5657 5654 5652 5651 5649 5648 5649 5649 5649 5649 5649 5649 5649 5648 5647 5647
5749 5746 5743 5739 5736 5732 5728 5724 5719 5714 5709 5704 5699 5694 5688 5684 5678 5673 5668 5663 5658 5652 5648 5645 5642 5638 5635 5633 5630 5629 5628 5627 5627 5627 5627 5628 5629 5630 5630 5631 5631 5631 5632
5736 5733 5729 5725 5721 5717 5712 5707 5702 5697 5691 5686 5680 5673 5667 5661 5655 5650 5644 5639 5634 5628 5623 5620 5617 5614 5611 5608 5606 5605 5605 5605 5605 5605 5606 5608 5609 5611 5612 5613 5614 5615 5617
5723 5719 5715 5710 5706 5701 5695 5690 5684 5678 5672 5665 5659 5652 5646 5639 5632 5625 5619 5614 5610 5604 5599 5595 5592 5589 5586 5584 5583 5582 5582 5582 5583 5584 5586 5588 5590 5592 5594 5596 5598 5600 5602
5709 5704 5699 5694 5689 5683 5677 5671 5664 5657 5651 5644 5637 5630 5623 5617 5610 5604 5597 5592 5588 5583 5578 5573 5570 5566 5564 5562 5561 5560 5561 5562 5564 5565 5568 5570 5573 5575 5577 5580 5582 5584 5586
5693 5688 5683 5677 5671 5664 5658 5651 5644 5637 5630 5622 5615 5609 5602 5596 5590 5584 5578 5573 5568 5564 5559 5555 5551 5548 5545 5543 5542 5542 5543 5545 5547 5549 5552 5555 5557 5559 5562 5565 5568 5570 5573
5677 5671 5665 5659 5652 5646 5639 5632 5625 5618 5611 5604 5597 5590 5584 5578 5573 5568 5563 5558 5553 5548 5544 5541 5537 5534 5531 5529 5529 5529 5530 5531 5533 5536 5539 5541 5544 5547 5550 5552 5555 5557 5560
5660 5654 5648 5641 5635 5628 5621 5614 5608 5601 5594 5588 5582 5575 5569 5563 5558 5553 5549 5544 5540 5536 5533 5529 5526 5523 5521 5520 5519 5519 5520 5521 5523 5526 5528 5531 5533 5536 5538 5541 5543 5546 5548
5644 5638 5631 5625 5619 5612 5606 5600 5593 5587 5580 5574 5568 5562 5557 5551 5546 5542 5538 5534 5531 5527 5524 5521 5519 5517 5515 5514 5513 5513 5514 5515 5517 5519 5521 5522 5524 5527 5529 5532 5534 5536 5538
5629 5623 5617 5611 5605 5599 5593 5586 5580 5574 5568 5562 5556 5551 5545 5540 5536 5532 5529 5526 5523 5520 5518 5515 5513 5512 5510 5510 5509 5509 5510 5511 5512 5514 5515 5517 5518 5520 5522 5524 5526 5527 5529
5616 5610 5604 5599 5593 5587 5581 5575 5569 5563 5557 5552 5546 5541 5537 5532 5528 5525 5522 5519 5517 5515 5513 5511 5510 5508 5507 5507 5507 5507 5507 5508 5509 5510 5511 5512 5513 5514 5516 5517 5518 5519 5520
5604 5599 5593 5588 5582 5577 5571 5565 5560 5554 5549 5544 5539 5534 5530 5526 5523 5520 5517 5514 5512 5511 5509 5508 5507 5506 5505 5505 5505 5505 5505 5505 5506 5506 5507 5507 5508 5508 5509 5509 5510 5510 5511